Aérodrome :
LOGIN :

S'inscrire | Disclaimer

   EN    FR    IT 

 










Légende :    VFR   VFR Marginal   IFR   IFR Intensif   IFR Très Intensif
Visi : 
Plafond : 
>= 8 km
>= 3000ft
5 à 8 km
1000 à 3000 ft
1500m à 5 km
500 à 1000 ft
800 à 1500m
200 à 500 ft
< 800m
< 200 ft
Symboles :   Orages  Brouillard  Fortes neiges  Fortes précipitations  Vent > 20 kt
SIGMETs :   Divers  Orages  Givrage  Turbulence  Onde Orograph.  Cendres Volcan.







- Altitude de l'aérodrome : 313 ft
- Code IATA : LEH
- Voir les cartes d'approche


LFOH - Le Havre Octeville

DERNIER METAR :
  • 251530Z AUTO 06013KT CAVOK 03/M08 Q1023 NOSIG

METARs EXPIRÉS :
  • 251500Z AUTO 07013KT CAVOK 03/M08 Q1023 NOSIG
  • 251430Z AUTO 06014KT CAVOK 03/M08 Q1023 NOSIG
  • 251400Z AUTO 06014KT CAVOK 03/M08 Q1023 NOSIG
  • 251330Z AUTO 05012KT CAVOK 03/M08 Q1023 NOSIG
  • 251300Z AUTO 06013KT CAVOK 02/M09 Q1023 NOSIG

TAF TAF LFOH
Valide du 25 à 12h jusqu'au 26 à 12h UTC


251100Z 2512/2612 07012KT CAVOK
BECMG 2609/2611 07015G25KT
ATIS : +33 2 35 54 64 93
Pas de NOTAMs connus pour ce terrain.



MET'MAP, la Météo Aéronautique d'un coup d'oeil ! - Copyright ORBIFLY Décembre 2007 - Disclaimer

ORBIFLY MET'MAP TEAM :

Programmation & Développement : Alexandra Zaïnal
Conception & Développement : Baudouin d'Aumeries
Co-Programmation & Développement : Marc-Olivier Méhu
Soutien technique & logistique : Manuel Goepfert

Contact : metmap@orbifly.com




SOURCES & CREDITS :

   NOAA